• MPC Preparation (Info)

  • MPEC 2016-C119: 2016 CB137

    The following Minor Planet Electronic Circular may be linked-to from your own Web pages, but must not otherwise be redistributed electronically.

    A form allowing access to any MPEC is at the bottom of this page.


    Read MPEC 2016-C118 Read MPEC 2016-C120


    M.P.E.C. 2016-C119                               Issued 2016 Feb. 10, 16:26 UT
    
         The Minor Planet Electronic Circulars contain information on unusual
             minor planets and routine data on comets.  They are published
        on behalf of Division F of the International Astronomical Union by the
              Minor Planet Center, Smithsonian Astrophysical Observatory,
                              Cambridge, MA 02138, U.S.A.
    
                 Prepared using the Tamkin Foundation Computer Network
    
                                  MPC@CFA.HARVARD.EDU
                URL https://www.minorplanetcenter.net/    ISSN 1523-6714
    
                                      2016 CB137
    
    Observations:
         K16CD7B* C2016 02 05.48838 11 04 13.568+00 16 41.78         22.2 wLEC119F51
         K16CD7B  C2016 02 05.51199 11 04 11.735+00 15 39.55         22.1 wLEC119F51
         K16CD7B  C2016 02 05.52388 11 04 10.797+00 15 08.31         22.5 wLEC119F51
         K16CD7B KC2016 02 06.42655 11 03 06.07 -00 24 50.6                oEC119291
         K16CD7B KC2016 02 06.43393 11 03 05.41 -00 25 11.2                oEC119291
         K16CD7B KC2016 02 06.44133 11 03 04.83 -00 25 30.7                oEC119291
         K16CD7B KC2016 02 07.37013 11 01 54.61 -01 07 22.2                oEC119291
         K16CD7B KC2016 02 07.37442 11 01 54.22 -01 07 32.9                oEC119291
         K16CD7B KC2016 02 07.37870 11 01 53.90 -01 07 45.0                oEC119291
         K16CD7B KC2016 02 10.48476 10 57 24.38 -03 33 06.7          21.4 RoEC119291
         K16CD7B KC2016 02 10.48780 10 57 23.93 -03 33 15.5          22.0 RoEC119291
         K16CD7B KC2016 02 10.49084 10 57 23.77 -03 33 23.9          21.3 RoEC119291
    
    Observer details:
    291 LPL/Spacewatch II.  Observers M. T. Read, R. A. Mastaler.  1.8-m f/2.7
        reflector + CCD.
    F51 Pan-STARRS 1, Haleakala.  Observers B. Gibson, T. Goggia, N. Primak,
        A. Schultz, M. Willman.  Measurers K. Chambers, S. Chastel, L. Denneau,
        H. Flewelling, M. Huber, E. Lilly, E. Magnier, R. Wainscoat, C. Waters,
        R. Weryk.  1.8-m Ritchey-Chretien + CCD.
    
    Orbital elements:
    2016 CB137                                               Earth MOID = 0.3054 AU
    Epoch 2016 Jan. 13.0 TT = JDT 2457400.5                 MPC
    M 307.33617              (2000.0)            P               Q
    n   0.49987190     Peri.  248.75284     -0.84701737     +0.49173182
    a   1.5724019      Node   319.93003     -0.29106079     -0.74684838
    e   0.2427183      Incl.   18.27849     -0.44479793     -0.44767993
    P   1.97           H   22.5           G   0.15           U   7
    Residuals in seconds of arc
    160205 F51  0.0   0.1+    160206 291  0.3-  0.3-    160207 291  0.4+  0.0
    160205 F51  0.1+  0.1-    160206 291  0.0   0.0     160210 291  0.7+  0.1-
    160205 F51  0.1-  0.1-    160207 291  0.1-  0.6-    160210 291  1.4-  0.1-
    160206 291  0.5+  0.5+    160207 291  0.4-  0.4+    160210 291  0.8+  0.2+
    
    Ephemeris:
    2016 CB137               a,e,i = 1.57, 0.24, 18                  q = 1.1908
    Date    TT    R. A. (2000) Decl.     Delta      r     Elong.  Phase     V
    2016 01 11    11 10 14.8 +14 26 12   0.5937  1.4197   126.6    33.8    23.5
    ...
    2016 01 26    11 11 56.2 +07 07 09   0.4650  1.3699   139.0    28.1    22.8
    ...
    2016 02 03    11 06 49.8 +02 03 02   0.4085  1.3444   146.2    24.0    22.3
    ...
    2016 02 09    10 59 39.8 -02 22 21   0.3731  1.3260   151.3    20.9    22.0
    2016 02 10    10 58 10.4 -03 09 38   0.3679  1.3230   152.1    20.4    22.0
    2016 02 11    10 56 36.0 -03 57 43   0.3629  1.3200   152.8    20.0    21.9
    ...
    2016 02 17    10 45 24.2 -09 01 15   0.3370  1.3025   155.7    18.2    21.7
    ...
    2016 02 25    10 26 13.4 -16 08 27   0.3146  1.2806   154.4    19.5    21.5
    ...
    2016 03 11    09 43 11.8 -28 13 59   0.3083  1.2445   139.7    31.1    21.8
    
    A. U. Tomatic                (C) Copyright 2016 MPC           M.P.E.C. 2016-C119
    

    Read MPEC 2016-C118 Read MPEC 2016-C120


    MPEC number:

    Enter an MPEC number in one of the following forms:

    • 1997-B01 (the full form)
    • J97B01 (the packed version of the full form)
    • B01 (the abbreviated form)